Location: Cranford
(40.6578°N, 74.3024°W)
Time: 12:47:39
(UTC+00:00)

STARLINK-5248 - Pass Details

Date: 08 December 2022
Orbit: 349 x 350 km, 53.2° (Epoch: 02 February)

Event Time Altitude Azimuth Distance (km) Brightness Sun altitude
Rises 23:25:14 0° 269° (W) 2,153 ? -21.2°
Reaches altitude 10° 23:27:42 10° 291° (WNW) 1,314 ? -21.7°
Enters shadow 23:29:20 17° 324° (NW) 996 ? -22.0°
